Location: Brad
(46.1333°N, 22.7833°E)
Time: 04:11:22
(UTC+00:00)

COSMOS 2428 - Pass Details

Date: 03 February 2023
Orbit: 843 x 858 km, 70.9° (Epoch: 29 March)

Event Time Altitude Azimuth Distance (km) Brightness Sun altitude
Rises 16:45:17 0° 150° (SSE) 3,391 5.6 -12.2°
Reaches altitude 10° 16:49:02 10° 125° (SE) 2,460 4.7 -12.9°
Enters shadow 16:50:16 12° 112° (ESE) 2,288 4.5 -13.1°
